1332723034338,0.000152710
1332723094338,0.000151137
1332723154338,0.000151480
1332723214338,0.000150485
1332723274338,0.000149956
1332726634351,0.000148774
1332726694351,0.000149886
1332726754351,0.000149246
1332726814351,0.000148938
1332726874351,0.000148590
1332730234363,0.000149006
1332730294363,0.000152549
1332730354363,0.000155802
1332730414363,0.000154914
1332730474363,0.000151515
1332733834376,0.000148627
1332733894376,0.000148247
1332733954376,0.000149623
1332734014376,0.000148813
1332734074376,0.000148325
1332737434388,0.000148025
1332737494388,0.000148355
1332737554388,0.000149214
1332737614388,0.000150378
1332737674388,0.000148703
1332741034400,0.000148779
1332741094400,0.000148984
1332741154400,0.000150690
1332741214400,0.000150010
1332741274400,0.000147980
1332755434447,0.000145750
1332755494447,0.000146165
1332755554447,0.000146002
1332755614447,0.000147808
1332755674447,0.000147444
1332759034459,0.000148010
1332759094459,0.000147088
1332759154459,0.000145359
1332759214459,0.000146632
1332759274459,0.000147278
1332762634471,0.000148515
1332762694471,0.000148369
1332762754471,0.000147635
1332762814471,0.000148399
1332762874471,0.000147749
1332766234483,0.000148058
1332766294483,0.000148621
1332766354483,0.000148553
1332766414483,0.000149597
1332766474483,0.000147943
1332769834496,0.000149618
1332769894496,0.000150022
1332769954496,0.000150052
1332770014496,0.000148308
1332770074496,0.000148348
1332770134496,0.000148821
1332770194496,0.000148249
1332770254496,0.000147740
1332770314496,0.000148689
1332770374496,0.000146704
1332770434508,0.000147829
1332770494508,0.000145986
1332770554508,0.000145523
1332770614508,0.000147120
1332770674508,0.000147800
1332770734508,0.000146770
1332770794508,0.000146838
1332770854508,0.000146613
1332770914508,0.000145941
1332770974508,0.000147565
1332771034508,0.000147616
1332771094508,0.000149203
1332771154508,0.000147868
1332771214508,0.000147814
1332771274508,0.000147676
1332771334508,0.000146978
1332771394508,0.000146793
1332771454508,0.000148040
1332771514508,0.000149229
1332771574508,0.000149275
1332771634508,0.000149290
1332771694508,0.000149698
1332771754508,0.000149134
1332771814508,0.000151285
1332771874508,0.000153975
1332771934508,0.000151393
1332771994508,0.000153017
1332772054508,0.000151180
1332772114508,0.000153606
1332772174508,0.000151805
1332772234508,0.000151957
1332772294508,0.000150730
1332772354508,0.000151565
1332772414508,0.000150166
1332772474508,0.000149888
1332772534508,0.000148627
1332772594508,0.000147851
1332772654508,0.000148175
1332772714508,0.000148613
1332772774508,0.000147417
1332772834508,0.000148644
1332772894508,0.000148435
1332772954508,0.000148877
1332773014508,0.000150237
1332773074508,0.000148830
1332773134508,0.000148678
1332773194508,0.000146934
1332773254508,0.000146643
1332773314508,0.000148012
1332773374508,0.000147149
1332773434508,0.000146384
1332773494508,0.000147451
1332773554508,0.000147225
1332773614508,0.000147268
1332773674508,0.000145648
1332773734508,0.000147147
1332773794508,0.000147267
1332773854508,0.000149014
1332773914508,0.000148042
1332773974508,0.000149090
1332774034520,0.000149362
1332774094520,0.000149194
1332774154520,0.000149812
1332774214520,0.000149630
1332774274520,0.000148891
1332774334520,0.000150471
1332774394520,0.000150262
1332774454520,0.000150302
1332774514520,0.000148372
1332774574520,0.000150192
1332774634520,0.000150058
1332774694520,0.000149098
1332774754520,0.000148489
1332774814520,0.000149320
1332774874520,0.000149592
1332774934520,0.000148274
1332774994520,0.000148352
1332775054520,0.000150549
1332775114520,0.000149034
1332775174520,0.000150523
1332775234520,0.000149989
1332775294520,0.000149130
1332775354520,0.000151539
1332775414520,0.000150926
1332775474520,0.000150591
1332775534520,0.000148609
1332775594520,0.000149081
1332775654520,0.000148762
1332775714520,0.000148683
1332775774520,0.000148023
1332775834520,0.000149434
1332775894520,0.000148837
1332775954520,0.000151072
1332776014520,0.000151826
1332776074520,0.000150511
1332776134520,0.000151515
1332776194520,0.000152206
1332776254520,0.000151791
1332776314520,0.000150807
1332776374520,0.000149411
1332776434520,0.000150358
1332776494520,0.000150295
1332776554520,0.000148990
1332776614520,0.000149961
1332776674520,0.000150950
1332776734520,0.000149540
1332776794520,0.000150543
1332776854520,0.000149603
1332776914520,0.000149543
1332776974520,0.000150121
1332777034520,0.000150869
1332777094520,0.000150897
1332777154520,0.000151500
1332777214520,0.000150756
1332777274520,0.000150370
1332777334520,0.000147492
1332777394520,0.000150082
1332777454520,0.000150969
1332777514520,0.000150746
1332777574520,0.000150949
1332777634532,0.000150708
1332777694532,0.000148422
1332777754532,0.000149615
1332777814532,0.000147514
1332777874532,0.000148918
1332777934532,0.000148281
1332777994532,0.000148647
1332778054532,0.000148721
1332778114532,0.000147222
1332778174532,0.000148239
1332778234532,0.000148610
1332778294532,0.000149177
1332778354532,0.000149808
1332778414532,0.000149284
1332778474532,0.000151045
1332778534532,0.000148905
1332778594532,0.000148203
1332778654532,0.000148178
1332778714532,0.000148082
1332778774532,0.000146683
1332778834532,0.000146185
1332778894532,0.000147227
1332778954532,0.000146566
1332779014532,0.000145836
1332779074532,0.000146923
1332779134532,0.000147121
1332779194532,0.000145962
1332779254532,0.000146812
1332779314532,0.000146718
1332779374532,0.000147989
1332779434532,0.000146609
1332779494532,0.000146914
1332779554532,0.000148460
1332779614532,0.000148824
1332779674532,0.000146708
1332779734532,0.000146713
1332779794532,0.000146847
1332779854532,0.000147480
1332779914532,0.000148223
1332779974532,0.000146887
1332780034532,0.000147469
1332780094532,0.000147029
1332780154532,0.000145925
1332780214532,0.000147836
1332780274532,0.000148547
1332780334532,0.000148287
1332780394532,0.000147971
1332780454532,0.000148241
1332780514532,0.000148009
1332780574532,0.000146885
1332780634532,0.000147786
1332780694532,0.000149100
1332780754532,0.000148974
1332780814532,0.000146803
1332780874532,0.000147674
1332784234543,0.000147574
1332784294543,0.000148088
1332784354543,0.000147418
1332784414543,0.000146488
1332784474543,0.000147163
1332787834561,0.000149208
1332787894561,0.000148553
1332787954561,0.000149659
1332788014561,0.000150668
1332788074561,0.000150478
1332791434572,0.000147572
1332791494572,0.000146151
1332791554572,0.000147260
1332791614572,0.000147838
1332791674573,0.000147476
1332795034584,0.000147208
1332795094584,0.000147105
1332795154584,0.000145932
1332795214584,0.000148210
1332795274584,0.000147185
1332798634596,0.000146234
1332798694596,0.000147001
1332798754596,0.000146370
1332798814596,0.000147414
1332798874596,0.000148200
1332802234609,0.000149438
1332802294609,0.000150068
1332802354609,0.000151151
1332802414609,0.000152429
1332802474609,0.000150462
1332805834621,0.000151086
1332805894621,0.000151006
1332805954621,0.000150799
1332806014621,0.000150369
1332806074621,0.000150437
